Location: Mountain View
(37.3861°N, 122.0839°W)
Time: 10:28:46
(UTC-08:00)

Tiangong 2 - Pass Details

Date: 18 August 2018
Orbit: 382 x 393 km, 42.8° (Epoch: 12 November)

Event Time Altitude Azimuth Distance (km) Brightness Sun altitude
Exits shadow 05:04:24 42° 251° (WSW) 558 1.4 -15.8°
Maximum altitude 05:05:20 86° 333° (NNW) 391 1.0 -15.7°
Drops below altitude 10° 05:08:32 10° 66° (ENE) 1,417 5.3 -15.1°
Sets 05:10:37 0° 67° (ENE) 2,277 6.9 -14.8°
